Theta_e
330 330 332 332 330 326 323 322 314 314 313 307 305 303 304 304 304 304 301 299 298 297
327 326 327 329 330 326 322 313 307 306 303 300 299 300 302 300 297 298 298 297 296 295
325 326 326 325 322 318 312 307 305 300 300 296 296 298 298 296 296 295 295 295 294 293
324 324 320 316 311 308 304 303 303 302 296 295 294 295 295 295 294 293 292 292 292 291
313 317 314 316 310 305 300 302 296 298 294 294 294 294 293 292 292 291 290 290 290 289
310 310 311 307 305 303 297 297 293 295 293 292 292 292 292 291 291 290 290 289 289 288
306 306 306 302 299 297 295 293 290 292 291 291 291 291 290 290 289 288 288 288 288 287
300 300 297 295 293 290 292 290 292 289 290 290 290 288 289 289 288 287 287 287 286 287
294 291 291 289 288 288 288 288 288 287 288 288 286 289 289 289 287 287 286 285 285 286
291 290 289 287 286 286 286 287 286 287 288 287 287 289 289 288 287 286 286 285 285 284
289 288 287 286 286 286 286 285 285 286 287 287 287 289 289 286 287 286 286 285 285 285
289 288 287 286 286 286 285 285 285 286 286 287 288 289 288 286 286 285 284 285 285 285
289 288 287 287 286 285 286 285 285 285 286 286 287 289 288 286 286 284 284 284 284 284
288 288 288 287 286 285 285 285 285 284 285 285 286 288 288 287 285 285 284 284 283 284
Wind_Speed
18 12 13 14 11 10 11 11 10 8 9 9 8 6 5 6 6 8 7 8 6 5
15 13 11 14 13 10 9 8 8 9 11 8 9 8 9 6 8 8 7 8 7 6
12 12 11 10 11 12 10 13 13 11 12 9 8 10 11 9 9 9 6 6 8 7
13 11 10 9 9 10 11 13 14 15 11 12 12 11 11 10 11 10 9 7 8 8
11 11 10 13 13 12 12 12 12 13 13 12 12 12 12 11 10 11 11 10 9 9
10 11 11 10 12 12 12 12 11 13 14 13 13 13 11 11 10 10 9 10 9 9
10 9 7 8 10 11 12 13 11 11 12 12 12 12 11 11 11 10 9 8 8 8
6 6 6 8 8 8 10 10 11 11 11 12 11 9 12 11 11 11 10 8 7 7
8 7 7 8 9 9 9 10 10 10 11 12 6 17 17 13 10 10 10 10 8 8
8 9 9 9 10 11 11 12 10 11 12 11 10 20 19 15 9 10 10 10 9 7
10 10 10 11 11 11 11 13 12 11 11 11 9 21 20 16 10 9 10 10 9 8
11 11 12 13 13 11 11 10 10 10 11 12 10 20 21 16 9 9 9 8 8 8
11 12 13 12 12 10 10 10 8 8 8 10 11 19 21 15 8 9 7 6 7 11
10 11 12 11 9 9 9 9 8 9 7 7 9 14 21 19 8 8 8 7 7 7
Wind_Direction
219 222 221 220 211 205 187 186 159 158 157 140 136 130 134 135 130 128 132 134 125 121
216 213 219 218 211 202 180 164 149 148 142 141 135 150 144 138 136 129 132 132 131 125
208 207 208 199 191 182 169 159 160 149 154 148 140 155 137 140 144 138 134 140 141 133
209 199 181 178 175 169 158 164 170 163 159 154 151 149 146 152 152 147 142 143 143 137
208 196 185 191 180 170 165 172 158 162 157 159 149 148 155 154 158 154 154 155 150 143
205 200 196 185 172 174 161 161 155 165 160 157 150 152 158 157 158 158 156 159 155 153
205 197 190 176 167 162 160 155 156 166 158 148 147 154 149 154 154 154 155 152 151 156
187 174 151 155 151 139 154 148 159 153 147 146 150 155 155 158 159 158 151 148 152 163
165 148 154 147 149 143 147 144 159 165 151 153 150 162 161 157 159 159 156 157 160 161
164 166 162 155 153 157 160 156 156 162 161 158 156 168 167 158 155 158 163 163 164 166
173 168 161 162 169 163 168 170 165 159 167 158 167 170 168 162 155 159 165 167 168 171
179 174 172 176 175 170 167 168 172 167 167 164 164 171 170 160 158 160 165 169 174 181
182 178 182 181 177 173 173 166 161 163 173 165 161 176 174 168 161 161 164 167 183 198
186 186 182 173 170 161 161 151 159 165 166 169 171 177 181 180 176 172 168 180 190 198